Location: Beccas
(43.4309°N, 0.1528°E)
Time: 10:47:24
(UTC+00:00)

BlueWalker 3 - Visible Passes

Search period start: 08 December 2022 00:00
Search period end: 18 December 2022 00:00
Orbit: 501 x 518 km, 53.2° (Epoch: 07 December)

Date Brightness Start Highest point End Pass type
(mag) Time Alt. Az. Time Alt. Az. Time Alt. Az.
08 Dec 2.8 17:26:08 10° NW 17:29:41 32° NNE 17:31:50 19° ENE visible
08 Dec 3.9 19:04:42 10° WNW 19:06:42 27° WNW 19:06:42 27° WNW visible
09 Dec 2.8 17:07:42 10° NW 17:11:18 33° NNE 17:14:45 11° E visible
09 Dec 2.9 18:46:18 10° WNW 18:49:37 47° WSW 18:49:37 47° WSW visible
10 Dec 2.8 18:27:54 10° WNW 18:31:40 48° SW 18:32:47 36° S visible
11 Dec 3.0 18:09:30 10° WNW 18:13:14 45° SW 18:16:19 14° SSE visible
12 Dec 3.2 17:51:06 10° WNW 17:54:47 42° SW 17:58:27 10° SSE visible
13 Dec 3.4 17:32:41 10° WNW 17:36:21 39° SW 17:39:58 10° SSE visible
14 Dec 3.7 17:14:17 10° WNW 17:17:53 36° SW 17:21:28 10° SSE visible
15 Dec 3.9 16:55:52 10° WNW 16:59:25 34° SW 17:02:58 10° SSE visible
